sat.trackr.live / text

‹ back to catalog

LEMUR-2-BALTO

NORAD 63395 · 2025-052BH

PAYLOAD ACTIVE UNKNOWN

§ Identity

Operator
Country
US
Launch date
2025-03-15
Launch site
AFWTR
Launch vehicle
Mass (kg)
RCS (m²)

Purposes: earth_obs

External: N2YO · Heavens-Above · Gunter

§ Orbital elements

Epoch: 2026-09-19T22:47:13.251552Z

Period
95.95 min
Inclination
97.6658°
Eccentricity
0.0009163
Mean motion
15.00751622 rev/d
Perigee alt
558.2 km
Apogee alt
570.9 km
Semi-major
6,942.7 km
B*
1.8546e-4
RAAN
155.4375°
Arg perigee
110.5531°
Mean anomaly
249.6677°
Rev number
8,297

§ Raw data

LEMUR-2-BALTO1 63395U 25052BH  26262.94945893  .00002294  00000+0  18546-3 0  99922 63395  97.6658 155.4375 0009163 110.5531 249.6677 15.00751622 82970

JSON: /api/v1/satellites/63395 · /tle

For live sub-satellite position, see the globe view (requires WebGL).

§ Visibility from observer

Set your observer location to see the next 7 days of passes ≥ 10°. The values pass through the URL so the page stays shareable.

No JS? Fill the form by hand. The geolocation button needs JavaScript.